TimeCDT,TemperatureF,Dew PointF,Humidity,Sea Level PressureIn,VisibilityMPH,Wind Direction,Wind SpeedMPH,Gust SpeedMPH,PrecipitationIn,Events,Conditions,WindDirDegrees,DateUTC
12:15 AM,48.2,37.4,66,29.34,10.0,West,13.8,19.6,N/A,,Overcast,270,2012-10-18 05:15:00
12:35 AM,48.2,37.4,66,29.33,10.0,West,13.8,-,N/A,,Overcast,270,2012-10-18 05:35:00
12:55 AM,46.4,37.4,71,29.33,10.0,West,12.7,-,N/A,,Overcast,270,2012-10-18 05:55:00
1:15 AM,46.4,37.4,71,29.33,10.0,West,8.1,-,N/A,,Overcast,270,2012-10-18 06:15:00
1:35 AM,46.4,39.2,76,29.33,10.0,West,17.3,26.5,N/A,,Overcast,280,2012-10-18 06:35:00
1:55 AM,46.4,39.2,76,29.33,10.0,West,10.4,18.4,N/A,,Overcast,280,2012-10-18 06:55:00
2:15 AM,46.4,39.2,76,29.33,7.0,West,16.1,-,N/A,,Overcast,270,2012-10-18 07:15:00
2:35 AM,44.6,39.2,81,29.34,7.0,West,10.4,-,N/A,,Overcast,280,2012-10-18 07:35:00
2:55 AM,44.6,39.2,81,29.33,7.0,West,10.4,-,N/A,,Drizzle,280,2012-10-18 07:55:00
3:15 AM,44.6,39.2,81,29.32,10.0,West,15.0,19.6,N/A,,Light Drizzle,280,2012-10-18 08:15:00
3:35 AM,44.6,39.2,81,29.32,10.0,West,10.4,17.3,N/A,,Overcast,260,2012-10-18 08:35:00
3:55 AM,44.6,39.2,81,29.31,10.0,West,12.7,-,N/A,,Overcast,260,2012-10-18 08:55:00
4:15 AM,44.6,39.2,81,29.30,10.0,West,15.0,18.4,N/A,,Overcast,260,2012-10-18 09:15:00
4:35 AM,44.6,39.2,81,29.30,10.0,West,16.1,20.7,N/A,,Overcast,270,2012-10-18 09:35:00
4:55 AM,44.6,39.2,81,29.29,10.0,West,11.5,-,N/A,,Overcast,260,2012-10-18 09:55:00
5:15 AM,44.6,39.2,81,29.29,10.0,West,15.0,21.9,N/A,,Overcast,260,2012-10-18 10:15:00
5:35 AM,44.6,39.2,81,29.29,10.0,West,12.7,17.3,N/A,,Overcast,260,2012-10-18 10:35:00
5:55 AM,44.6,39.2,81,29.28,10.0,WSW,15.0,-,N/A,,Overcast,250,2012-10-18 10:55:00
6:15 AM,44.6,39.2,81,29.28,10.0,West,15.0,20.7,N/A,,Overcast,260,2012-10-18 11:15:00
6:35 AM,44.6,39.2,81,29.27,10.0,WSW,15.0,20.7,N/A,,Overcast,250,2012-10-18 11:35:00
6:55 AM,44.6,39.2,81,29.27,7.0,West,15.0,-,N/A,,Light Drizzle,260,2012-10-18 11:55:00
7:15 AM,44.6,39.2,81,29.27,7.0,West,13.8,20.7,N/A,Rain,Light Rain,260,2012-10-18 12:15:00
7:35 AM,44.6,39.2,81,29.27,10.0,West,15.0,18.4,N/A,,Drizzle,260,2012-10-18 12:35:00
7:55 AM,42.8,39.2,87,29.27,7.0,WSW,15.0,18.4,N/A,,Light Drizzle,250,2012-10-18 12:55:00
8:15 AM,42.8,39.2,87,29.27,5.0,West,13.8,-,N/A,,Light Drizzle,260,2012-10-18 13:15:00
8:35 AM,42.8,39.2,87,29.27,5.0,West,16.1,-,N/A,,Overcast,260,2012-10-18 13:35:00
8:55 AM,42.8,39.2,87,29.27,10.0,West,13.8,-,N/A,,Overcast,260,2012-10-18 13:55:00
9:15 AM,42.8,39.2,87,29.27,10.0,WSW,13.8,17.3,N/A,,Overcast,250,2012-10-18 14:15:00
9:35 AM,42.8,39.2,87,29.26,4.0,West,11.5,-,N/A,,Overcast,260,2012-10-18 14:35:00
9:55 AM,42.8,39.2,87,29.26,5.0,WSW,15.0,18.4,N/A,,Overcast,250,2012-10-18 14:55:00
10:15 AM,42.8,39.2,87,29.26,4.0,WSW,13.8,18.4,N/A,,Overcast,250,2012-10-18 15:15:00
10:35 AM,44.6,39.2,81,29.25,7.0,West,10.4,-,N/A,,Overcast,260,2012-10-18 15:35:00
10:55 AM,44.6,39.2,81,29.25,10.0,West,12.7,-,N/A,,Unknown,260,2012-10-18 15:55:00
11:15 AM,44.6,39.2,81,29.25,7.0,WSW,10.4,-,N/A,,Overcast,250,2012-10-18 16:15:00
11:35 AM,44.6,41.0,87,29.25,10.0,WSW,12.7,-,N/A,,Overcast,240,2012-10-18 16:35:00
11:55 AM,46.4,41.0,81,29.25,10.0,WSW,12.7,-,N/A,,Overcast,250,2012-10-18 16:55:00
12:15 PM,46.4,41.0,81,29.25,7.0,WSW,12.7,-,N/A,,Overcast,250,2012-10-18 17:15:00
12:35 PM,46.4,41.0,81,29.25,7.0,WSW,10.4,-,N/A,,Overcast,250,2012-10-18 17:35:00
12:55 PM,46.4,41.0,81,29.25,5.0,SW,9.2,-,N/A,,Haze,220,2012-10-18 17:55:00
1:15 PM,46.4,41.0,81,29.25,10.0,West,9.2,-,N/A,,Overcast,260,2012-10-18 18:15:00
1:35 PM,46.4,41.0,81,29.25,10.0,WSW,6.9,-,N/A,,Overcast,250,2012-10-18 18:35:00
1:55 PM,46.4,42.8,87,29.25,5.0,West,6.9,-,N/A,Rain,Light Rain,270,2012-10-18 18:55:00
2:15 PM,46.4,42.8,87,29.26,7.0,SW,6.9,-,N/A,,Light Drizzle,230,2012-10-18 19:15:00
2:35 PM,46.4,42.8,87,29.26,10.0,WSW,6.9,-,N/A,,Overcast,240,2012-10-18 19:35:00
2:55 PM,46.4,42.8,87,29.26,10.0,WSW,6.9,-,N/A,,Overcast,240,2012-10-18 19:55:00
3:15 PM,46.4,42.8,87,29.26,5.0,SW,8.1,-,N/A,,Drizzle,220,2012-10-18 20:15:00
3:35 PM,46.4,42.8,87,29.27,5.0,WSW,6.9,-,0.02,Rain,Light Rain,250,2012-10-18 20:35:00
3:55 PM,46.4,42.8,87,29.27,10.0,WSW,5.8,-,0.02,,Overcast,250,2012-10-18 20:55:00
4:15 PM,46.4,42.8,87,29.28,4.0,West,6.9,-,N/A,Rain,Light Rain,260,2012-10-18 21:15:00
4:35 PM,48.2,42.8,82,29.28,10.0,SW,5.8,-,N/A,Rain,Light Rain,230,2012-10-18 21:35:00
4:55 PM,48.2,42.8,82,29.29,10.0,WSW,6.9,-,N/A,,Overcast,240,2012-10-18 21:55:00
5:15 PM,48.2,42.8,82,29.29,10.0,SW,5.8,-,N/A,,Overcast,230,2012-10-18 22:15:00
5:35 PM,48.2,42.8,82,29.30,10.0,WSW,6.9,-,N/A,,Overcast,240,2012-10-18 22:35:00
5:55 PM,46.4,42.8,87,29.31,2.5,WSW,6.9,-,N/A,,Light Drizzle,240,2012-10-18 22:55:00
6:15 PM,46.4,42.8,87,29.31,2.5,Calm,Calm,-,0.01,,Heavy Drizzle,0,2012-10-18 23:15:00
6:35 PM,46.4,42.8,87,29.32,2.5,WNW,3.5,-,0.03,Rain,Light Rain,300,2012-10-18 23:35:00
6:55 PM,46.4,42.8,87,29.32,4.0,West,3.5,-,0.04,Rain,Light Rain,280,2012-10-18 23:55:00
7:15 PM,46.4,42.8,87,29.33,4.0,West,3.5,-,N/A,Rain,Light Rain,270,2012-10-19 00:15:00
7:35 PM,46.4,42.8,87,29.33,10.0,WNW,3.5,-,N/A,,Overcast,290,2012-10-19 00:35:00
7:55 PM,46.4,42.8,87,29.34,10.0,Calm,Calm,-,N/A,,Overcast,0,2012-10-19 00:55:00
8:35 PM,46.4,42.8,87,29.35,10.0,NNW,4.6,-,N/A,,Overcast,340,2012-10-19 01:35:00
9:15 PM,46.4,42.8,87,29.36,10.0,NNW,8.1,-,N/A,,Overcast,340,2012-10-19 02:15:00
9:35 PM,44.6,42.8,93,29.37,10.0,North,5.8,-,N/A,,Overcast,350,2012-10-19 02:35:00
9:55 PM,46.4,42.8,87,29.37,10.0,NNW,5.8,-,N/A,,Overcast,330,2012-10-19 02:55:00
10:15 PM,44.6,42.8,93,29.37,10.0,North,5.8,-,N/A,,Overcast,350,2012-10-19 03:15:00
10:35 PM,44.6,42.8,93,29.37,10.0,North,4.6,-,N/A,,Overcast,350,2012-10-19 03:35:00
10:55 PM,44.6,41.0,87,29.37,10.0,North,4.6,-,N/A,,Mostly Cloudy,350,2012-10-19 03:55:00